Regional Weather Roundup
Issued by NWS

Home | Current Version | Previous Version | Graphics & Text | Print | Product List | Glossary On
Versions: 1 2 3 4 5 6 7 8 9 10 11 12 13 14 15 16 17 18 19 20 21 22 23 24 25 26 27 28 29 30 31 32 33 34 35 36 37 38 39 40 41 42 43 44 45 46 47 48 49 50
788
ASUS44 KLIX 190310
RWRLA
LOUISIANA WEATHER ROUNDUP
NATIONAL WEATHER SERVICE NEW ORLEANS LA
900 PM CST THU DEC 18 2014

NOTE: "FAIR" INDICATES FEW OR NO CLOUDS BELOW 12,000 FEET WITH NO
      SIGNIFICANT WEATHER AND/OR OBSTRUCTIONS TO VISIBILITY.
      SKY/WX - SKY CONDITION AND SIGNIFICANT WEATHER.
      TMP - AIR TEMPERATURE.    DP   - DEWPOINT TEMPERATURE.
      RH  - RELATIVE HUMIDITY.  PRES - PRESSURE.
      HX  - HEAT INDEX.         WCI  - WIND CHILL INDEX.

*  THESE STATIONS ARE NOT NWS OR FAA STATIONS AND ARE NOT UNDER
   NWS QUALITY CONTROL.

LAZ040-048-061>063-065-066-069-190400-
SOUTHEAST LOUISIANA

CITY           SKY/WX    TMP DP  RH WIND       PRES   REMARKS
N.O. AUDUBON     N/A     60  55  84 MISG        N/A
N.O. INTL ARPT LGT RAIN  59  54  83 NE8       30.14S
N.O. LAKEFRONT CLOUDY    59  53  80 NE12      30.14S
N.O. DOWNTOWN* MOCLDY    57  50  77 NE5       30.14S
SLIDELL        CLOUDY    59  53  80 NE3       30.14S
BATON ROUGE    CLOUDY    56  54  93 NE6       30.13R
BOOTHVILLE     CLOUDY    61  58  90 CALM      30.13S
BELLE CHASSE   CLOUDY    57  55  93 NE3       30.14R
BOGALUSA*        N/A     54  50  89 NE3       30.17S
GALLIANO*      LGT RAIN  63  60  92 MISG      30.13R
NEW ROADS*     CLOUDY    54  54  98 CALM      30.14S
GONZALES*      CLOUDY    59  57  92 E3        30.12S
HAMMOND*       NOT AVBL
HOUMA*         CLOUDY    60  59  97 NE9       30.12S FOG
PORT FOURCHON* NOT AVBL

$$

LAZ041-044-053-054-190400-
SOUTHWEST LOUISIANA

CITY           SKY/WX    TMP DP  RH WIND       PRES   REMARKS
LAKE CHARLES   CLOUDY    57  53  86 NE12      30.10S
LAFAYETTE      CLOUDY    58  53  84 NE8       30.12R
PATTERSON      CLOUDY    57  55  94 NE8       30.12R
SALT POINT       N/A     65  61  87 VRB3      30.09S
NEW IBERIA     CLOUDY    61  54  77 NE7       30.12R
CHENAULT AIRPK CLOUDY    55  53  91 NE6       30.11S

$$

LAZ027-028-190400-
CENTRAL LOUISIANA

CITY           SKY/WX    TMP DP  RH WIND       PRES   REMARKS
FORT POLK      CLOUDY    52  51  96 VRB6      30.11F
ALEXANDRIA INT CLOUDY    52  49  89 NE6       30.13S
ALEXANDRIA     CLOUDY    52  49  89 CALM      30.15S

$$

LAZ001-002-190400-
NORTHWEST LOUISIANA

CITY           SKY/WX    TMP DP  RH WIND       PRES   REMARKS
SHREVEPORT     CLOUDY    51  47  86 NE7       30.16S
BARKSDALE AFB  NOT AVBL
DTN SHREVEPORT CLOUDY    50  46  86 NE5       30.17R

$$

LAZ014-016-190400-
NORTHEAST LOUISIANA

CITY           SKY/WX    TMP DP  RH WIND       PRES   REMARKS
MONROE         MOCLDY    47  45  93 NE5       30.19R
TALLULAH       MOCLDY    44  42  93 E5        30.18S

$$




USA.gov is the U.S. government's official web portal to all federal, state and local government web resources and services.